Location: Arroyo Grande
(40.2671°N, 4.2512°W)
Time: 19:47:15
(UTC+00:00)

SMAP - Pass Details

Date: 03 February 2023
Orbit: 681 x 684 km, 98.1° (Epoch: 22 March)

Event Time Altitude Azimuth Distance (km) Brightness Sun altitude
Rises 17:52:20 0° 172° (S) 3,032 6.5 -3.5°
Reaches altitude 10° 17:54:35 10° 175° (S) 2,121 5.8 -3.9°
Maximum altitude 17:59:12 68° 259° (WSW) 736 3.6 -4.7°
Drops below altitude 10° 18:03:52 10° 342° (NNW) 2,137 5.7 -5.6°
Sets 18:06:08 0° 345° (NNW) 3,058 6.4 -6.0°
